Vinasat-2

operational
NORAD ID: 38332 Int'l Des: 2012-023 Owner: VNPT Country: VN
HEOCIRCULARGSOGEO

Über Vinasat-2

Beschreibung wird geladen...

Live-Position

3D-Globus wird geladen...

Nächste Überflüge

Höhenverlauf

Altitude vs Time

uPlot chart will show altitude changes over time

Zweizeiliger Elementsatz

1 38332U 12023B 26092.85253009 -.00000333 00000-0 00000+0 0 9997
2 38332 0.0400 40.0740 0002888 352.0444 237.8095 1.00270477 45908
Epoch: 2. Apr. 2026 • Age: 28 hours

Aktueller Status

Höhe 35780.2 km
Geschwindigkeit 3.08 km/s
Subsatellitenpunkt 0.01°N, 131.8°E
Startdatum 15. Mai 2012
Alter 13.8 years
Typ other

Technische Details

Klassifizierung Payload
Masse 2964.00 kg
Trockenmasse 1500.00 kg
Gesamtmasse 2964.00 kg
Länge 4.40 m
Durchmesser 1.90 m
Spannweite 18.90 m
Form Box + 2 pan
Hersteller LMCSS
Bus-Typ A2100A
Phasenstatus In Orbit
Besitzer/Staat VNPT/VN

Große Konstellationen

Loading constellations...